Content
SEND FEEDBACK

Daily
Averages
Monthly
Summary
Greece

ANDRAVIDHA, GREECE


Home > Europe > Greece
Elevation: 50 feet     Latitude: 37 55N     Longitude: 021 17E

WEATHER
 
SELECT A DAY
Number of Records: 95,970;   Date Range: 7/11/96 - 12/26/14
 
SHARE

PRINT THIS DATA

[ ← Previous Day ]
WEATHER ALMANAC - JULY 30, 2014
[ Next Day → ]
[ °C ]   °F
Weather ElementAverageHighLow
Temperature79.1 °F91.4 °F (2:50 pm)66.2 °F (4:20 am)
Dewpoint63.4 °F69.8 °F (9:20 pm)55.4 °F (3:50 pm)
Humidity61.1 %88 % (4:20 am)24 % (3:00 pm)
Barometer29.83 in29.87 in (12:00 pm)29.77 in (7:20 pm)
Wind Speed3.8 mph8.1 mph (11:20 am)
Weather ElementAverage
Visibility6.1 mi
Wind DirectionSE (136.7 °)

Weather ElementTotal
Precipitation---
Cooling Degree Days13.8 (Base 65)
Growing Degree Days28.8 (Base 50)
Averaged from 50 records on July 30, 2014
WEATHER CONDITIONS BREAKOUT
WIND DIRECTION BREAKOUT
WEATHER BY HOUR - JULY 30, 2014
[ °C ]   °F
Local TimeTemperatureDewpointHumidityBarometerVisibilityWind DirectionWind SpeedGust SpeedPrecipitationEventsConditions
12:20 AM71.6 °F66.2 °F83 %29.83 inCalmClear
12:50 AM71.6 °F64.4 °F78 %29.86 inCalmClear
1:20 AM69.8 °F64.4 °F83 %29.86 inCalmClear
3:00 AM67.0 °F63.0 °F82 %29.85 in6.0 miCalm
3:50 AM68.0 °F62.6 °F83 %29.83 inCalmClear
4:20 AM66.2 °F62.6 °F88 %29.83 inCalmClear
4:50 AM66.2 °F62.6 °F88 %29.83 inCalmClear
5:20 AM66.2 °F62.6 °F88 %29.83 inCalmClear
5:50 AM66.2 °F62.6 °F88 %29.83 inCalmClear
6:00 AM67.0 °F63.0 °F83 %29.85 in6.0 miCalm
6:20 AM66.2 °F62.6 °F88 %29.83 inCalmClear
6:50 AM66.2 °F62.6 °F88 %29.83 inCalmClear
7:20 AM68.0 °F64.4 °F88 %29.83 inCalmClear
7:50 AM71.6 °F66.2 °F83 %29.83 inCalmClear
8:20 AM73.4 °F68.0 °F83 %29.83 inCalmClear
9:00 AM76.0 °F68.0 °F71 %29.84 in6.0 mi°3.5 mph
9:20 AM78.8 °F68.0 °F69 %29.83 inEast (100°)5.8 mphClear
9:50 AM82.4 °F66.2 °F58 %29.83 inVariable2.3 mphClear
10:20 AM84.2 °F64.4 °F51 %29.83 inVariable3.5 mphClear
10:50 AM86.0 °F66.2 °F51 %29.83 inVariable3.5 mphClear
11:20 AM86.0 °F68.0 °F55 %29.83 inNW (310°)8.1 mphClear
11:50 AM84.2 °F66.2 °F55 %29.86 inNW (310°)8.1 mphClear
12:00 PM85.0 °F67.0 °F45 %29.87 in6.0 miNW (310°)8.1 mphClear
12:20 PM84.2 °F64.4 °F51 %29.86 inNW (310°)8.1 mphClear
12:50 PM87.8 °F60.8 °F40 %29.86 inNW (320°)6.9 mphClear
1:20 PM86.0 °F60.8 °F43 %29.86 inNW (310°)8.1 mphClear
1:50 PM87.8 °F57.2 °F35 %29.86 inNW (320°)5.8 mphClear
2:20 PM89.6 °F57.2 °F33 %29.83 inNW (310°)4.6 mphClear
2:50 PM91.4 °F59.0 °F34 %29.83 inVariable3.5 mphClear
3:00 PM91.0 °F59.0 °F24 %29.84 in6.0 mi°3.5 mphScattered Clouds
3:20 PM91.4 °F57.2 °F31 %29.83 inNW (310°)5.8 mphClear
3:50 PM87.8 °F55.4 °F33 %29.83 in6.2 miWNW (290°)6.9 mphScattered Clouds
4:20 PM86.0 °F62.6 °F45 %29.83 in6.2 miWest (280°)5.8 mphScattered Clouds
4:50 PM89.6 °F59.0 °F36 %29.83 in6.2 miWest (270°)8.1 mphScattered Clouds
5:20 PM87.8 °F60.8 °F40 %29.83 in6.2 miWNW (300°)8.1 mphScattered Clouds
5:50 PM87.8 °F57.2 °F35 %29.83 inNW (310°)5.8 mphClear
6:00 PM89.0 °F57.0 °F24 %29.83 in6.0 miNW (310°)5.8 mphPartly Cloudy
6:20 PM86.0 °F60.8 °F43 %29.80 inVariable3.5 mphClear
6:50 PM86.0 °F60.8 °F43 %29.80 inSouth (180°)5.8 mphClear
7:20 PM82.4 °F62.6 °F51 %29.77 inSouth (170°)6.9 mphClear
7:50 PM82.4 °F62.6 °F51 %29.80 in6.2 miSSW (210°)5.8 mphScattered Clouds
8:20 PM80.6 °F64.4 °F58 %29.80 in6.2 miSW (220°)6.9 mphPartly Cloudy
8:50 PM78.8 °F68.0 °F69 %29.83 in6.2 miSSW (210°)4.6 mphPartly Cloudy
9:00 PM78.0 °F69.0 °F66 %29.83 in6.0 miSSW (210°)4.6 mphScattered Clouds
9:20 PM77.0 °F69.8 °F78 %29.80 in6.2 miSE (130°)5.8 mphPartly Cloudy
9:50 PM77.0 °F68.0 °F74 %29.83 in6.2 miSE (140°)4.6 mphPartly Cloudy
10:20 PM77.0 °F68.0 °F74 %29.83 in6.2 miSSE (150°)5.8 mphPartly Cloudy
10:50 PM75.2 °F66.2 °F73 %29.83 in6.2 miCalmPartly Cloudy
11:20 PM73.4 °F66.2 °F78 %29.83 in6.2 miCalmPartly Cloudy
11:50 PM75.2 °F62.6 °F65 %29.80 in6.2 miVariable3.5 mphPartly Cloudy
Hourly data recorded from LGAD, located miles away from Andravidha, Greece







STORIES FROM OUR PARTNERS